Tracking 30995 objects as of 6-Jul-2025
HD Live streaming from Space Station
objects crossing your sky now

NOAA 16 DEB

Track NOAA 16 DEB now!
10-day predictions


NORAD ID: 41084
Int'l Code: 2000-055AT
Perigee: 811.5 km
Apogee: 836.5 km
Inclination: 98.7 °
Period: 101.2 minutes
Semi major axis: 7195 km
RCS: Unknown
Launch date: September 21, 2000
Source: United States (US)
Launch site: AIR FORCE WESTERN TEST RANGE (AFWTR)

Note: This is SATELLITE DEBRIS
Your satellite tracking list
Your tracking list is empty




NASA's NSSDC Master Catalog

Two Line Element Set (TLE):
1 41084U 00055AT  25186.19119432  .00001128  00000-0  52442-3 0  9991
2 41084  98.7107 271.8275 0017374 144.1133 216.1215 14.22503277496811
Source of the keplerian elements: AFSPC